Location: Goudex
(43.3760°N, 0.9543°E)
Time: 13:42:06
(UTC+00:00)

Cosmos 1408 Rocket - Visible Passes

Search period start: 18 February 2020 00:00
Search period end: 28 February 2020 00:00
Orbit: 600 x 632 km, 82.6° (Epoch: 17 February)

Date Brightness Start Highest point End Pass type
(mag) Time Alt. Az. Time Alt. Az. Time Alt. Az.
18 Feb 5.3 04:35:48 21° S 04:35:48 21° S 04:37:18 10° S visible
18 Feb 6.5 18:40:10 10° WSW 18:42:43 15° WNW 18:45:17 10° NNW visible
22 Feb 6.5 18:07:46 10° WSW 18:10:26 16° WNW 18:13:05 10° NNW visible
